Terminal Aerodrome Forecast
Issued by NWS

Home | Current Version | Previous Version | Text Only | Print | Product List | Glossary On
Versions: 1 2 3 4 5 6 7 8 9 10 11 12 13 14 15 16 17 18 19 20 21 22 23
000
FTAK31 PANC 050535
TAFAAQ
TAF
PAAQ 050535Z 0506/0606 25006KT P6SM FEW080
     FM050900 35006KT P6SM FEW070 SCT200
     FM052000 16010KT P6SM FEW040 BKN090=

USA.gov is the U.S. government's official web portal to all federal, state and local government web resources and services.